Find Starlink 4473

NORAD ID: 53660 Int'l Des: 2022-105 Owner: SPXS Country: US Constellation: starlink operational
LEOCIRCULARRETROGRADESSO

实时位置

正在加载3D地球...

关于 Starlink 4473

正在加载描述...

即将过境

Passes for default location (London). Set your location on the main map for personalized predictions.

高度历史

Loading altitude history...

两行轨道根数

1 53660U 22105N 26132.91394503 -.00001772 00000-0 -11871-3 0 9998
2 53660 97.5003 13.2809 0002629 72.8601 287.2914 15.05656010202895
Epoch: May 12, 2026 • Age: 11 hours

当前状态

高度 570.0 km
速度 7.57 km/s
星下点 -48.49°S, 173.68°W
发射日期 Aug 31, 2022
运行时间 3.6 years
类型 internet

技术详情

分类 Payload
质量 300.00 kg
干质量 290.00 kg
总质量 300.00 kg
长度 0.20 m
直径 2.80 m
跨度 9.00 m
形状 Box + pan
制造商 SPXS
平台类型 Starlink
阶段状态 In Orbit
所有者/国家 SPXS/US

Most Searched